Aeroporto :
LOGIN :

Iscrizione | Disclaimer

   EN    FR    IT 

 










Sommario :    VFR   VFR Marginale   IFR   IFR Intensivo   IFR Molto Intensivo
Visibilità : 
Base nubi : 
>= 8 km
>= 3000ft
5 / 8 km
1000 / 3000 ft
1500m / 5 km
500 / 1000 ft
800 / 1500m
200 / 500 ft
< 800m
< 200 ft
Simboli :   Temporali  Nebbia  Neve Forte  Precipitazioni Forti  Vento > 20 kt
SIGMETs :   Varie  Temporali  Ghiacco  Turbolenza  Onda orograficha  Ceneri Vulcaniche






- Altitudine del aeroporto : 781 ft
- Codice IATA : SKP


LWSK - Skopje

ULTIMO METAR :
  • 070830Z 00000KT 9999 FEW040 22/12 Q1010 NOSIG

METARs OBSOLETI :
  • 070800Z 00000KT 9999 FEW040 21/12 Q1010 NOSIG
  • 070730Z 00000KT CAVOK 20/13 Q1010 NOSIG
  • 070700Z 00000KT CAVOK 19/13 Q1011 NOSIG
  • 070630Z 00000KT CAVOK 18/13 Q1011 NOSIG

TAF TAF LWSK
Valido dal 07 a 09 ore il 08 a 09 ore UTC


070830Z 0709/0809 VRB02KT 9999 FEW045
PROB30
TEMPO 0712/0716 VRB15KT SHRA FEW033CB BKN040



MetMap, La meteo Aeronautica in un colpo d'occhio ! - Copyright ORBIFLY Dicembre 2007 - Disclaimer

ORBIFLY MET'MAP TEAM :

Programmazione e sviluppo : Alexandra Zaïnal
Concezione : Baudouin d'Aumeries
Aiuto per la programmazione : Marc-Olivier Méhu
Supporto tecnico e logistico : Manuel Goepfert
Aiuto per la traduzione : Arnaldo La Scala

Contatto : metmap@orbifly.com




FONTI E CREDITI :

   NOAA